User: anonymous   Login
Location: Unspecified
(0.0000°N, 0.0000°E)
Time: 09:52:54
(UTC+00:00)
Language:

EUTE 9B - Orbit

View from above orbital plane
View from above orbital plane
View from above satellite
View from above satellite

Ground track
Ground track

The orbit data is extracted from the following two-line orbital elements,

1 41310U 16005A   24276.38174532  .00000063  00000-0  00000-0 0  9994
2 41310   0.0504  46.9594 0003717 178.2301 292.8616  1.00275224 31873
Epoch (UTC): 02 October 2024 09:09:42
Eccentricity: 0.0003717
inclination: 0.0504°
perigee height: 35769 km
apogee height: 35801 km
right ascension of ascending node: 46.9594°
argument of perigee: 178.2301°
revolutions per day: 1.00275224
mean anomaly at epoch: 292.8616°
orbit number at epoch: 3187

The dashed part of the orbit path shows where the satellite is in the earth's shadow,  

DLR